Regional Weather Roundup
Issued by NWS

Home | Current Version | Previous Version | Text Only | Print | Product List | Glossary On
Versions: 1 2 3 4 5 6 7 8 9 10 11 12 13 14 15 16 17 18 19 20 21 22 23 24 25 26 27 28 29 30 31 32 33 34 35 36 37 38 39 40 41 42 43 44 45 46 47 48 49 50
000
ASUS43 KTOP 211159
RWRKS

WEATHER ROUNDUP FOR KANSAS
NATIONAL WEATHER SERVICE GOODLAND KS
700 AM CDT THU SEP 21 2017

NOTE:  "FAIR" INDICATES FEW OR NO CLOUDS BELOW 12,000 FEET WITH NO
SIGNIFICANT WEATHER AND/OR OBSTRUCTIONS TO VISIBILITY.

KSZ001>006-013>018-027>032-041>047-211300-
NORTHWEST KANSAS

CITY           SKY/WX    TMP DP  RH WIND       PRES   REMARKS
GOODLAND       CLEAR     54  43  66 S14       29.78F
6HR MIN TEMP:  50; 6HR MAX TEMP:  55;

HAYS           CLEAR     52  49  89 W3        29.81S
HILL CITY      CLEAR     47  44  90 NW3       29.81S
6HR MIN TEMP:  47; 6HR MAX TEMP:  57;

RUSSELL        CLEAR     59  56  89 S9        29.79S
6HR MIN TEMP:  59; 6HR MAX TEMP:  64;

$$

KSZ061>065-074>080-084>089-211300-
SOUTHWEST KANSAS

CITY           SKY/WX    TMP DP  RH WIND       PRES   REMARKS
DODGE CITY     CLEAR     57  48  72 S9        29.83R
6HR MIN TEMP:  55; 6HR MAX TEMP:  63;

ELKHART          N/A     54  45  72 SW7         N/A
GARDEN CITY    CLEAR     51  43  74 SE13      29.82R
6HR MIN TEMP:  50; 6HR MAX TEMP:  62;

GREAT BEND     CLEAR     55  52  89 CALM      29.82R
LIBERAL        CLEAR     53  46  77 CALM      29.85R
$$

KSZ066>073-081>083-090>101-211300-
SOUTHEAST KANSAS

CITY           SKY/WX    TMP DP  RH WIND       PRES   REMARKS
CHANUTE        CLEAR     74  70  87 SE12      29.90R
6HR MIN TEMP:  74; 6HR MAX TEMP:  81;

COFFEYVILLE    CLEAR     73  70  90 SE6       29.89R
6HR MIN TEMP:  73; 6HR MAX TEMP:  78;

HUTCHINSON     CLEAR     72  71  97 SE9       29.82F
6HR MIN TEMP:  71; 6HR MAX TEMP:  77;

MEDICINE LODGE   N/A     70  66  87 SE7       29.82S
NEWTON         CLEAR     71  70  96 S9        29.85S
WICHITA INTL   PTCLDY    73  72  96 S9        29.83S
6HR MIN TEMP:  73; 6HR MAX TEMP:  78;

WICHITA JABRA  CLEAR     73  72  96 S9        29.84S
6HR MIN TEMP:  73; 6HR MAX TEMP:  79;

WINFIELD       CLEAR     74  72  93 S7        29.86R
6HR MIN TEMP:  74; 6HR MAX TEMP:  79;

$$

KSZ007>012-019>026-033>040-048>060-102>105-211300-
NORTHEAST KANSAS

CITY           SKY/WX    TMP DP  RH WIND       PRES   REMARKS
CONCORDIA      CLEAR     70  70 100 S12       29.80S
6HR MIN TEMP:  62; 6HR MAX TEMP:  70;

EMPORIA        CLEAR     73  70  90 S12       29.85S
6HR MIN TEMP:  73; 6HR MAX TEMP:  78;

LAWRENCE       CLEAR     73  72  96 E6        29.87R
6HR MIN TEMP:  73; 6HR MAX TEMP:  79;

MANHATTAN      CLEAR     76  72  87 S8        29.82S
6HR MIN TEMP:  72; 6HR MAX TEMP:  77;

OLATHE IND     CLEAR     74  71  91 S10       29.91R
6HR MIN TEMP:  74; 6HR MAX TEMP:  79;

OLATHE EXE     CLEAR     73  71  93 S8        29.91R
6HR MIN TEMP:  73; 6HR MAX TEMP:  76;

SALINA         CLEAR     76  70  82 S13       29.80S
6HR MIN TEMP:  72; 6HR MAX TEMP:  76;

TOPEKA BILLARD CLEAR     74  72  93 S5        29.85S
6HR MIN TEMP:  73; 6HR MAX TEMP:  77;

TOPEKA FORBES  CLEAR     77  72  84 S9        29.86S
6HR MIN TEMP:  74; 6HR MAX TEMP:  80;

$$



USA.gov is the U.S. government's official web portal to all federal, state and local government web resources and services.